User: anonymous   Login
Location: Bothwell
(42.3833°S, 147.0000°E)
Time: 08:52:43
(UTC+10:00)
Language:

FEDSAT - Orbit

View from above orbital plane
View from above orbital plane
View from above satellite
View from above satellite

Ground track
Ground track

The orbit data is extracted from the following two-line orbital elements,

1 27598U 02056B   24115.44983091  .00000596  00000-0  25226-3 0  9995
2 27598  98.7519  69.5937 0010161 102.6837 257.5481 14.29165519113782
Epoch (UTC): 24 April 2024 10:47:45
Eccentricity: 0.0010161
inclination: 98.7519°
perigee height: 787 km
apogee height: 802 km
right ascension of ascending node: 69.5937°
argument of perigee: 102.6837°
revolutions per day: 14.29165519
mean anomaly at epoch: 257.5481°
orbit number at epoch: 11378

The dashed part of the orbit path shows where the satellite is in the earth's shadow,  

DLR